Regional Weather Roundup
Issued by NWS

Home | Current Version | Previous Version | Text Only | Print | Product List | Glossary On
Versions: 1 2 3 4 5 6 7 8 9 10 11 12 13 14 15 16 17 18 19 20 21 22 23 24 25 26 27 28 29 30 31 32 33 34 35 36 37 38 39 40 41 42 43 44 45 46 47 48 49 50
000
ASUS46 KSEW 290610
RWRWA

WASHINGTON REGIONAL WEATHER ROUNDUP
NATIONAL WEATHER SERVICE SEATTLE WA
1000 PM PST FRI NOV 28 2014

NOTE:"FAIR" INDICATES FEW OR NO CLOUDS BELOW 12,000 FEET WITH NO
SIGNIFICANT WEATHER AND/OR OBSTRUCTIONS TO VISIBILITY.

WAZ505-507>509-290700-
SEATTLE, TACOMA, EVERETT, AND VICINITY

CITY           SKY/WX    TMP DP  RH WIND       PRES   REMARKS
EVERETT        LGT RAIN  37  34  89 CALM      29.51S FOG
6HR MIN TEMP:  36; 6HR MAX TEMP:  37; 6HR PCP:  0.10;

BOEING FIELD   CLOUDY    41  36  82 SE7       29.53S
6HR MIN TEMP:  40; 6HR MAX TEMP:  41; 6HR PCP:  0.13;

RENTON         CLOUDY    39  37  92 CALM      29.53S
6HR MIN TEMP:  39; 6HR MAX TEMP:  40; 6HR PCP:  0.12;

SEATAC AIRPORT MOCLDY    39  36  89 S10       29.52S
6HR MIN TEMP:  38; 6HR MAX TEMP:  39; 6HR PCP:  0.12;

JBLM-MCCHORD   CLOUDY    40  39  98 S10       29.54R
6HR MIN TEMP:  38; 6HR MAX TEMP:  40; 6HR PCP:  0.19;

PUYALLUP       NOT AVBL
JBLM-FT LEWIS  DRIZZLE   39  38  96 S9        29.54R
6HR MIN TEMP:  39; 6HR MAX TEMP:  41; 6HR PCP:  0.13;

TACOMA NARROWS CLOUDY    40  35  83 S9        29.52S
6HR MIN TEMP:  38; 6HR MAX TEMP:  41; 6HR PCP:  0.13;

$$

WAZ001-503-506-510-514-515-290700-
NORTH INTERIOR

CITY           SKY/WX    TMP DP  RH WIND       PRES   REMARKS
BELLINGHAM     LGT SNOW  32  28  86 N7        29.49R FOG
6HR MIN TEMP:  32; 6HR MAX TEMP:  43; 6HR PCP:  0.04;

FRIDAY HARBOR  MOCLDY    39  22  50 VRB3      29.50R
6HR MIN TEMP:  38; 6HR MAX TEMP:  41; 6HR PCP: TRACE;

EASTSOUND      CLOUDY    37  32  81 N8G17     29.49R
PORT ANGELES   LGT SNOW  36  31  82 W12G23    29.51R
6HR MIN TEMP:  36; 6HR MAX TEMP:  43; 6HR PCP: TRACE;

NAS WHIDBEY    LGT RAIN  43  29  57 W29G44    29.49S
6HR MIN TEMP:  41; 6HR MAX TEMP:  46; 6HR PCP: TRACE;

BURLINGTON     CLOUDY    39  30  70 W9        29.51S
$$

WAZ020-022-039-040-504-511-512-290700-
SOUTHWEST INTERIOR

CITY           SKY/WX    TMP DP  RH WIND       PRES   REMARKS
SHELTON        CLOUDY    37  34  89 SW10      29.51R
6HR MIN TEMP:  34; 6HR MAX TEMP:  42; 6HR PCP:  0.04;

OLYMPIA        CLOUDY    40  36  86 SW8       29.56R
6HR MIN TEMP:  39; 6HR MAX TEMP:  45; 6HR PCP:  0.02;

CHEHALIS       RAIN      41  39  93 SW3       29.57S
KELSO          MOCLDY    43  39  87 S5        29.62S
6HR MIN TEMP:  43; 6HR MAX TEMP:  48; 6HR PCP:  0.13;

VANCOUVER      CLOUDY    45  38  76 NW5       29.60R
6HR MIN TEMP:  45; 6HR MAX TEMP:  56; 6HR PCP:  0.18;

SCAPPOOSE, OR  MOCLDY    42  39  89 CALM      29.60R
6HR MIN TEMP:  40; 6HR MAX TEMP:  54; 6HR PCP:  0.03;

PORTLAND, OR   CLOUDY    46  40  79 NW7       29.61R
6HR MIN TEMP:  45; 6HR MAX TEMP:  56; 6HR PCP:  0.22;

$$

WAZ021-516-517-290700-
WASHINGTON COAST

CITY           SKY/WX    TMP DP  RH WIND       PRES   REMARKS
FORKS          CLOUDY    37  31  78 NW7       29.53S
6HR MIN TEMP:  36; 6HR MAX TEMP:  42; 6HR PCP:  0.01;

HOQUIAM        CLOUDY    41  36  82 W6        29.57R
6HR MIN TEMP:  40; 6HR MAX TEMP:  45; 6HR PCP:  0.02;

ASTORIA, OR    CLOUDY    43  38  82 NW20G31   29.60R
6HR MIN TEMP:  43; 6HR MAX TEMP:  45; 6HR PCP:  0.07;

$$

WAZ019-023-024-040-518-519-290700-
CASCADE MOUNTAINS AND COLUMBIA GORGE

CITY           SKY/WX    TMP DP  RH WIND       PRES   REMARKS
STAMPEDE PASS  NOT AVBL
TROUTDALE, OR  CLOUDY    45  40  82 W6        29.60R
6HR MIN TEMP:  45; 6HR MAX TEMP:  58; 6HR PCP:  0.58;

THE DALLES, OR CLOUDY    46  38  73 W17       29.50R
6HR MIN TEMP:  46; 6HR MAX TEMP:  58; 6HR PCP:  0.06;

$$

WAZ026-027-041>044-520-521-290700-
EAST SLOPES

CITY           SKY/WX    TMP DP  RH WIND       PRES   REMARKS
OMAK           PTCLDY    25  13  60 N20G31    29.42R WCI  11
6HR MIN TEMP:  24; 6HR MAX TEMP:  31; 6HR PCP:  0.08;

WENATCHEE      CLEAR     44  27  51 W17       29.32R
6HR MIN TEMP:  42; 6HR MAX TEMP:  52; 6HR PCP: TRACE;

ELLENSBURG     MOCLDY    40  28  62 NW29G39   29.35R
6HR MIN TEMP:  39; 6HR MAX TEMP:  48; 6HR PCP:  0.01;

YAKIMA         MOCLDY    47  29  49 NW12      29.36R
6HR MIN TEMP:  47; 6HR MAX TEMP:  58; 6HR PCP: TRACE;

$$

WAZ028-034-035-290700-
COLUMBIA BASIN

CITY           SKY/WX    TMP DP  RH WIND       PRES   REMARKS
EPHRATA        PTCLDY    45  30  55 W10       29.28R
6HR MIN TEMP:  45; 6HR MAX TEMP:  56; 6HR PCP:  0.02;

MOSES LAKE     CLOUDY    46  35  65 SW13      29.31R
6HR MIN TEMP:  46; 6HR MAX TEMP:  56; 6HR PCP:  0.03;

PASCO          MOCLDY    54  45  71 W23G32    29.36R
6HR MIN TEMP:  54; 6HR MAX TEMP:  60; 6HR PCP:  0.03;

HERMISTON, OR  CLOUDY    56  41  57 SW23G35   29.40S
6HR MIN TEMP:  56; 6HR MAX TEMP:  60; 6HR PCP: TRACE;

$$

WAZ036>038-290700-
NORTHEAST WASHINGTON

CITY           SKY/WX    TMP DP  RH WIND       PRES   REMARKS
SPOKANE GEIGER LGT RAIN  46  43  89 SW29G44   29.24S
6HR MIN TEMP:  46; 6HR MAX TEMP:  50; 6HR PCP:  0.07;

SPOKANE FELTS  LGT RAIN  48  43  82 SW22G32   29.26S
6HR MIN TEMP:  48; 6HR MAX TEMP:  53; 6HR PCP:  0.08;

FAIRCHILD AFB  MIX PCPN  45  43  93 SW25G32   29.25S
6HR MIN TEMP:  26; 6HR MAX TEMP:  50; 6HR PCP:  0.12;

COEURDALENE,ID CLOUDY    48  41  76 SW29G40   29.23F
6HR MIN TEMP:  46; 6HR MAX TEMP:  52; 6HR PCP:  0.05;

DEER PARK      CLOUDY    46  42  86 SW18G29   29.23S
6HR MIN TEMP:  46; 6HR MAX TEMP:  50; 6HR PCP:  0.21;

$$

WAZ029>033-290700-
SOUTHEAST WASHINGTON

CITY           SKY/WX    TMP DP  RH WIND       PRES   REMARKS
PULLMAN        LGT RAIN  48  41  76 SW28G43   29.37R
6HR MIN TEMP:  47; 6HR MAX TEMP:  52; 6HR PCP:  0.26;

LEWISTON, ID   CLOUDY    52  41  66 W6        29.36R
6HR MIN TEMP:  52; 6HR MAX TEMP:  56; 6HR PCP: TRACE;

WALLA WALLA    CLOUDY    57  39  51 SW21G31   29.39R
6HR MIN TEMP:  57; 6HR MAX TEMP:  61;

PENDLETON, OR  LGT RAIN  51  41  68 SW21      29.41R
6HR MIN TEMP:  51; 6HR MAX TEMP:  58; 6HR PCP: TRACE;

$$



USA.gov is the U.S. government's official web portal to all federal, state and local government web resources and services.